Regional Weather Roundup
Issued by NWS Glasgow, MT

Home | Current Version | Previous Version | Text Only | Print | Product List | Glossary On
Versions: 1 2 3 4 5 6 7 8 9 10 11 12 13 14 15 16 17 18 19 20 21 22 23 24 25 26 27 28 29 30 31 32 33 34 35 36 37 38 39 40 41 42 43 44 45 46 47 48 49 50
000
ASUS45 KGGW 200015
RWRGGW
HOURLY WEATHER ROUNDUP FOR NORTHEAST MONTANA
NATIONAL WEATHER SERVICE GLASGOW MONTANA
600 PM MDT FRI SEP 19 2014

NOTE: "FAIR" INDICATES FEW OR NO CLOUDS BELOW 12,000 FEET WITH NO
SIGNIFICANT WEATHER AND/OR OBSTRUCTIONS TO VISISBILITY.

NORTHEAST MONTANA


CITY           SKY/WX    TMP DP  RH WIND       PRES   REMARKS
GLASGOW        MOSUNNY   73  51  46 NW10      29.79R
6HR MIN TEMP:  71; 6HR MAX TEMP:  78;

PLENTYWOOD       N/A     70  51  51 NW8         N/A
WOLF POINT     MOSUNNY   75  52  44 W9        29.77S
JORDAN           N/A     72  48  42 NW9       29.84R
WINNETT          N/A     72  49  44 W3          N/A
SIDNEY         PTCLDY    73  50  43 NW7       29.79R
GLENDIVE       PTCLDY    73  46  38 NW15G22   29.82S
MALTA            N/A     76  45  33 NW8         N/A
SCOBEY           N/A     65  50  58 NW7       29.79R
OPHEIM           N/A     64  48  55 NW5       29.61R

FORT PECK REPORTS


CITY           SKY/WX    TMP DP  RH WIND       PRES   REMARKS
FORT PECK        N/A     72  53  51 W13         N/A
THE PINES        N/A     77  46  33 NW9G20      N/A

SOUTHEAST MONTANA


CITY           SKY/WX    TMP DP  RH WIND       PRES   REMARKS
BILLINGS       PTSUNNY   74  42  31 NW9       29.94R
MILES CITY     MOSUNNY   75  45  34 W21       29.85R
BAKER          PTCLDY    74  46  36 NW13G24   29.85R
LIVINGSTON     MOSUNNY   74  41  30 W16G28    30.00R

CENTRAL MONTANA


CITY           SKY/WX    TMP DP  RH WIND       PRES   REMARKS
HAVRE          MOSUNNY   75  43  31 W12       29.82R
LEWISTOWN      CLOUDY    70  43  37 W16G24    29.96R
GREAT FALLS    SUNNY     71  41  33 W25       29.95R
CUT BANK       SUNNY     70  42  36 W22G32    29.91F
HELENA         SUNNY     73  40  30 NW16G28   30.01F
BUTTE          CLOUDY    68  39  34 NW16G30   30.13R
BOZEMAN        MOSUNNY   70  43  37 N10       30.03R

WESTERN MONTANA


CITY           SKY/WX    TMP DP  RH WIND       PRES   REMARKS
MISSOULA       PTSUNNY   73  44  35 W8        30.08R
KALISPELL      NOT AVBL

NORTH DAKOTA


CITY           SKY/WX    TMP DP  RH WIND       PRES   REMARKS
WILLISTON      CLEAR     72  50  45 NW14      29.76R
DICKINSON      CLOUDY    72  48  42 W14       29.77R
MINOT          PTCLDY    69  55  60 NW16      29.69R
BISMARCK       CLOUDY    77  51  40 W14       29.69R

SOUTHERN SASKATCHEWAN


CITY           SKY/WX    TMP DP  RH WIND       PRES   REMARKS
REGINA         PTCLDY    66  52  59 NW9       29.73R
MOOSE JAW      PTCLDY    68  52  56 W6        29.74R
ESTEVAN        PTCLDY    68  54  60 NW9       29.73R
SWIFT CURRENT  SUNNY     70  46  43 NW12      29.77R



USA.gov is the U.S. government's official web portal to all federal, state and local government web resources and services.